Location: Lecco
(45.8566°N, 9.3977°E)
Time: 13:09:37
(UTC+02:00)

S-56A Canister/Altair - Pass Details

Date: 24 July 2019
Orbit: 633 x 2499 km, 38.9° (Epoch: 20 August)

Event Time Altitude Azimuth Distance (km) Brightness Sun altitude
Rises 12:18:52 0° 280° (W) 5,802 11.8 60.3°
Reaches altitude 10° 12:22:39 10° 275° (W) 4,949 11.6 60.7°
Maximum altitude 12:36:10 46° 209° (SSW) 3,093 11.7 61.8°
Drops below altitude 10° 12:49:23 10° 142° (SE) 4,833 12.2 62.8°
Sets 12:53:03 0° 137° (SE) 5,658 12.3 63.0°
